| time (UTC) | temp F | wind direction | speed MPH | gust MPH | rain 1hr in | rain 24hr in | rain mn in | humidity % | barometer mb |
| 20260506164715 | 61 | 252 | 0.0 | 5.0 | 0.01 | 0.25 | 0.21 | 94 | 962.0 |
| 20260506164215 | 62 | 215 | 0.0 | 5.0 | 0.01 | 0.25 | 0.21 | 95 | 962.1 |
| 20260506163709 | 61 | 213 | 0.0 | 3.0 | 0.01 | 0.25 | 0.21 | 95 | 962.2 |
| 20260506163203 | 61 | 223 | 0.0 | 3.0 | 0.01 | 0.25 | 0.21 | 96 | 962.2 |
| 20260506162656 | 61 | 173 | 0.0 | 1.0 | 0.01 | 0.25 | 0.21 | 96 | 962.2 |
| 20260506162415 | 60 | 238 | 0.0 | 2.0 | 0.01 | 0.25 | 0.21 | 96 | 962.2 |
| 20260506161645 | 60 | 188 | 0.0 | 3.0 | 0.01 | 0.25 | 0.21 | 96 | 962.3 |
| 20260506161139 | 60 | 209 | 0.0 | 3.0 | 0.01 | 0.25 | 0.21 | 97 | 962.2 |
| 20260506160853 | 60 | 211 | 0.0 | 2.0 | 0.01 | 0.25 | 0.21 | 98 | 962.2 |
| 20260506160127 | 59 | 253 | 0.0 | 0.0 | 0.01 | 0.25 | 0.21 | 97 | 962.2 |
| 20260506155850 | 59 | 192 | 0.0 | 0.0 | 0.01 | 0.25 | 0.21 | 97 | 962.2 |
| 20260506155115 | 58 | 171 | 0.0 | 2.0 | 0.00 | 0.24 | 0.20 | 97 | 962.3 |
| 20260506154609 | 58 | 236 | 0.0 | 2.0 | 0.00 | 0.24 | 0.20 | 97 | 962.3 |
| 20260506154328 | 58 | 268 | 0.0 | 0.0 | 0.00 | 0.24 | 0.20 | 97 | 962.3 |
| 20260506153557 | 58 | 331 | 0.0 | 4.0 | 0.00 | 0.24 | 0.20 | 97 | 962.3 |
| 20260506153051 | 58 | 289 | 0.0 | 3.0 | 0.00 | 0.24 | 0.20 | 96 | 962.2 |
| 20260506152544 | 58 | 149 | 0.0 | 1.0 | 0.00 | 0.24 | 0.20 | 96 | 962.2 |
| 20260506152039 | 58 | 192 | 0.0 | 1.0 | 0.00 | 0.24 | 0.20 | 96 | 962.1 |
| 20260506151533 | 58 | 211 | 0.0 | 1.0 | 0.00 | 0.24 | 0.20 | 96 | 962.1 |
| 20260506151027 | 58 | 200 | 0.0 | 3.0 | 0.01 | 0.24 | 0.20 | 96 | 962.1 |
| 20260506150521 | 58 | 200 | 0.0 | 3.0 | 0.01 | 0.24 | 0.20 | 96 | 962.0 |
| 20260506150015 | 58 | 258 | 0.0 | 3.0 | 0.01 | 0.24 | 0.20 | 96 | 962.0 |
| 20260506145508 | 58 | 246 | 0.0 | 3.0 | 0.01 | 0.24 | 0.20 | 96 | 962.0 |
| 20260506145003 | 57 | 215 | 0.0 | 1.0 | 0.01 | 0.24 | 0.20 | 97 | 961.8 |
| 20260506144457 | 57 | 220 | 0.0 | 1.0 | 0.01 | 0.24 | 0.20 | 97 | 961.8 |
| 20260506143951 | 57 | 265 | 0.0 | 3.0 | 0.02 | 0.24 | 0.20 | 97 | 961.8 |
| 20260506143702 | 57 | 277 | 0.0 | 3.0 | 0.02 | 0.24 | 0.20 | 97 | 961.8 |
| 20260506142939 | 57 | 302 | 0.0 | 1.0 | 0.02 | 0.24 | 0.20 | 97 | 961.9 |
| 20260506142433 | 57 | 286 | 0.0 | 2.0 | 0.02 | 0.24 | 0.20 | 97 | 961.8 |
| 20260506141927 | 57 | 145 | 0.0 | 2.0 | 0.02 | 0.24 | 0.20 | 97 | 961.7 |
| 20260506141421 | 57 | 213 | 0.0 | 2.0 | 0.03 | 0.24 | 0.20 | 97 | 961.6 |
| 20260506140915 | 57 | 250 | 0.0 | 2.0 | 0.02 | 0.23 | 0.19 | 97 | 961.7 |
| 20260506140409 | 57 | 215 | 0.0 | 0.0 | 0.02 | 0.23 | 0.19 | 97 | 961.7 |
| 20260506135903 | 57 | 161 | 0.0 | 2.0 | 0.02 | 0.23 | 0.19 | 97 | 961.8 |
| 20260506135356 | 57 | 273 | 0.0 | 2.0 | 0.02 | 0.23 | 0.19 | 97 | 961.6 |
| 20260506135119 | 57 | 223 | 0.0 | 1.0 | 0.02 | 0.23 | 0.19 | 97 | 961.8 |
| 20260506134345 | 57 | 284 | 0.0 | 1.0 | 0.02 | 0.23 | 0.19 | 97 | 961.8 |
| 20260506133838 | 56 | 197 | 0.0 | 0.0 | 0.01 | 0.22 | 0.18 | 97 | 961.8 |
| 20260506133559 | 56 | 198 | 0.0 | 0.0 | 0.01 | 0.22 | 0.18 | 97 | 961.8 |
| 20260506133056 | 56 | 195 | 0.0 | 0.0 | 0.01 | 0.22 | 0.18 | 97 | 961.8 |
| 20260506132321 | 56 | 195 | 0.0 | 0.0 | 0.01 | 0.22 | 0.18 | 97 | 962.0 |
| 20260506132032 | 56 | 196 | 0.0 | 0.0 | 0.02 | 0.22 | 0.18 | 97 | 962.0 |
| 20260506131309 | 56 | 196 | 0.0 | 0.0 | 0.02 | 0.21 | 0.17 | 97 | 962.0 |
| 20260506131023 | 56 | 196 | 0.0 | 0.0 | 0.04 | 0.21 | 0.17 | 97 | 962.0 |
| 20260506130258 | 56 | 197 | 0.0 | 0.0 | 0.05 | 0.21 | 0.17 | 96 | 962.0 |
| 20260506130014 | 56 | 257 | 0.0 | 0.0 | 0.06 | 0.21 | 0.17 | 96 | 962.0 |
| 20260506125733 | 56 | 164 | 0.0 | 2.0 | 0.07 | 0.21 | 0.17 | 96 | 961.9 |
| 20260506124739 | 56 | 289 | 0.0 | 2.0 | 0.08 | 0.21 | 0.17 | 96 | 961.9 |
| 20260506124233 | 56 | 261 | 0.0 | 3.0 | 0.09 | 0.21 | 0.17 | 96 | 962.1 |
| 20260506123948 | 56 | 261 | 0.0 | 3.0 | 0.10 | 0.21 | 0.17 | 96 | 961.9 |
| 20260506123221 | 56 | 131 | 0.0 | 0.0 | 0.12 | 0.21 | 0.17 | 96 | 961.8 |
| 20260506122715 | 56 | 131 | 0.0 | 0.0 | 0.12 | 0.21 | 0.17 | 96 | 962.0 |
| 20260506122209 | 56 | 131 | 0.0 | 0.0 | 0.14 | 0.21 | 0.17 | 96 | 961.8 |
| 20260506121920 | 56 | 131 | 0.0 | 0.0 | 0.13 | 0.20 | 0.16 | 96 | 961.9 |
| 20260506121203 | 56 | 131 | 0.0 | 0.0 | 0.11 | 0.18 | 0.15 | 96 | 961.9 |
| 20260506120659 | 56 | 131 | 0.0 | 0.0 | 0.11 | 0.17 | 0.13 | 96 | 962.1 |
| 20260506120200 | 56 | 138 | 0.0 | 1.0 | 0.10 | 0.16 | 0.12 | 96 | 962.2 |
| 20260506115704 | 56 | 141 | 0.0 | 1.0 | 0.09 | 0.15 | 0.11 | 96 | 962.3 |
| 20260506115158 | 56 | 289 | 0.0 | 0.0 | 0.08 | 0.14 | 0.10 | 96 | 962.3 |
| 20260506114656 | 57 | 292 | 0.0 | 0.0 | 0.07 | 0.13 | 0.09 | 96 | 962.4 |
| 20260506114157 | 57 | 292 | 0.0 | 0.0 | 0.06 | 0.12 | 0.08 | 96 | 962.5 |
| 20260506113655 | 57 | 292 | 0.0 | 1.0 | 0.05 | 0.11 | 0.07 | 96 | 962.4 |
| 20260506113155 | 57 | 292 | 0.0 | 1.0 | 0.03 | 0.09 | 0.06 | 96 | 962.5 |
| 20260506112655 | 57 | 15 | 0.0 | 0.0 | 0.02 | 0.08 | 0.05 | 96 | 962.5 |
| 20260506112153 | 57 | 15 | 0.0 | 0.0 | 0.02 | 0.07 | 0.03 | 96 | 962.5 |
| 20260506111651 | 57 | 16 | 0.0 | 0.0 | 0.02 | 0.07 | 0.03 | 96 | 962.3 |
| 20260506111153 | 57 | 16 | 0.0 | 0.0 | 0.02 | 0.07 | 0.03 | 96 | 962.1 |
| 20260506110651 | 57 | 16 | 0.0 | 0.0 | 0.01 | 0.07 | 0.02 | 96 | 962.1 |
| 20260506110148 | 57 | 16 | 0.0 | 0.0 | 0.01 | 0.08 | 0.02 | 95 | 962.0 |
| 20260506105647 | 57 | 17 | 0.0 | 0.0 | 0.02 | 0.08 | 0.02 | 95 | 961.9 |
| 20260506105149 | 57 | 16 | 0.0 | 0.0 | 0.02 | 0.08 | 0.02 | 95 | 961.9 |
| 20260506104644 | 57 | 16 | 0.0 | 0.0 | 0.02 | 0.12 | 0.02 | 94 | 961.9 |
| 20260506104402 | 57 | 17 | 0.0 | 0.0 | 0.02 | 0.12 | 0.02 | 94 | 962.0 |
| 20260506103641 | 57 | 16 | 0.0 | 0.0 | 0.02 | 0.12 | 0.02 | 94 | 962.0 |
| 20260506103142 | 57 | 17 | 0.0 | 0.0 | 0.02 | 0.12 | 0.02 | 93 | 962.0 |
| 20260506102911 | 58 | 17 | 0.0 | 0.0 | 0.02 | 0.12 | 0.02 | 92 | 962.0 |
| 20260506102143 | 58 | 16 | 0.0 | 0.0 | 0.01 | 0.11 | 0.01 | 92 | 962.0 |
| 20260506101642 | 58 | 16 | 0.0 | 0.0 | 0.01 | 0.11 | 0.01 | 91 | 961.9 |
| 20260506101142 | 58 | 17 | 0.0 | 0.0 | 0.01 | 0.11 | 0.01 | 91 | 962.0 |
| 20260506100643 | 58 | 16 | 0.0 | 0.0 | 0.01 | 0.11 | 0.01 | 90 | 962.0 |
| 20260506100356 | 58 | 16 | 0.0 | 0.0 | 0.01 | 0.11 | 0.01 | 90 | 962.1 |
| 20260506095639 | 58 | 16 | 0.0 | 0.0 | 0.00 | 0.10 | 0.00 | 89 | 962.1 |
| 20260506095138 | 58 | 16 | 0.0 | 0.0 | 0.00 | 0.10 | 0.00 | 89 | 961.9 |
| 20260506094637 | 59 | 17 | 0.0 | 0.0 | 0.00 | 0.10 | 0.00 | 89 | 961.9 |
| 20260506093900 | 59 | 17 | 0.0 | 0.0 | 0.00 | 0.10 | 0.00 | 87 | 961.7 |
| 20260506093138 | 59 | 17 | 0.0 | 0.0 | 0.00 | 0.10 | 0.00 | 86 | 961.6 |
| 20260506092904 | 60 | 16 | 0.0 | 0.0 | 0.00 | 0.10 | 0.00 | 86 | 961.6 |
| 20260506092138 | 60 | 257 | 0.0 | 0.0 | 0.00 | 0.10 | 0.00 | 85 | 961.7 |
| 20260506091903 | 60 | 257 | 0.0 | 0.0 | 0.00 | 0.10 | 0.00 | 83 | 961.8 |
| 20260506091140 | 61 | 257 | 0.0 | 0.0 | 0.00 | 0.10 | 0.00 | 82 | 961.8 |
| 20260506090638 | 61 | 257 | 0.0 | 0.0 | 0.00 | 0.10 | 0.00 | 81 | 961.8 |
| 20260506090138 | 61 | 257 | 0.0 | 0.0 | 0.00 | 0.10 | 0.00 | 79 | 961.9 |
| 20260506085637 | 62 | 257 | 0.0 | 0.0 | 0.00 | 0.10 | 0.00 | 78 | 962.0 |
| 20260506085138 | 62 | 257 | 0.0 | 0.0 | 0.00 | 0.10 | 0.00 | 76 | 962.0 |
| 20260506084638 | 62 | 257 | 0.0 | 0.0 | 0.00 | 0.10 | 0.00 | 76 | 962.1 |
| 20260506084137 | 62 | 257 | 0.0 | 0.0 | 0.00 | 0.10 | 0.00 | 75 | 962.2 |
| 20260506083636 | 62 | 228 | 0.0 | 0.0 | 0.00 | 0.10 | 0.00 | 75 | 962.3 |
| 20260506083137 | 62 | 197 | 0.0 | 3.0 | 0.00 | 0.10 | 0.00 | 73 | 962.4 |
| 20260506082853 | 63 | 301 | 0.0 | 3.0 | 0.00 | 0.10 | 0.00 | 73 | 962.3 |
| 20260506082136 | 63 | 294 | 0.0 | 2.0 | 0.00 | 0.10 | 0.00 | 73 | 962.6 |
| 20260506081632 | 63 | 273 | 0.0 | 3.0 | 0.00 | 0.10 | 0.00 | 72 | 962.6 |
| 20260506081610 | 63 | 302 | 0.0 | 3.0 | 0.00 | 0.10 | 0.00 | 72 | 962.5 |
| 20260506080632 | 63 | 302 | 0.0 | 3.0 | 0.00 | 0.10 | 0.00 | 71 | 962.3 |
| 20260506080352 | 63 | 277 | 0.0 | 3.0 | 0.00 | 0.10 | 0.00 | 71 | 962.2 |
| 20260506073129 | 64 | 203 | 1.0 | 7.0 | 0.00 | 0.10 | 0.00 | 67 | 962.6 |
| 20260506072623 | 64 | 288 | 0.0 | 1.0 | 0.00 | 0.10 | 0.00 | 66 | 962.6 |
| 20260506072117 | 64 | 267 | 0.0 | 5.0 | 0.00 | 0.10 | 0.00 | 65 | 962.5 |
| 20260506071611 | 65 | 302 | 1.0 | 5.0 | 0.00 | 0.10 | 0.00 | 65 | 962.7 |
| 20260506071104 | 65 | 281 | 1.0 | 5.0 | 0.00 | 0.10 | 0.00 | 64 | 962.6 |
| 20260506070557 | 65 | 292 | 1.0 | 5.0 | 0.00 | 0.10 | 0.00 | 63 | 962.7 |
| 20260506062050 | 65 | 298 | 0.0 | 6.0 | 0.00 | 0.10 | 0.00 | 63 | 962.7 |
| 20260506061553 | 64 | 290 | 0.0 | 1.0 | 0.00 | 0.10 | 0.00 | 63 | 962.8 |
| 20260506061050 | 64 | 284 | 0.0 | 1.0 | 0.00 | 0.10 | 0.00 | 66 | 962.8 |
| 20260506060547 | 64 | 289 | 0.0 | 1.0 | 0.00 | 0.10 | 0.00 | 66 | 962.9 |
| 20260506050504 | 63 | 213 | 0.0 | 0.0 | 0.00 | 0.10 | 0.00 | 66 | 963.3 |
| 20260506050216 | 63 | 213 | 0.0 | 0.0 | 0.00 | 0.10 | 0.00 | 67 | 963.4 |
| 20260506044946 | 62 | 213 | 0.0 | 0.0 | 0.00 | 0.10 | 0.00 | 65 | 963.3 |
| 20260506044440 | 62 | 213 | 0.0 | 0.0 | 0.00 | 0.10 | 0.00 | 67 | 963.4 |
| 20260506043934 | 61 | 213 | 0.0 | 0.0 | 0.00 | 0.10 | 0.00 | 69 | 963.5 |
| 20260506043428 | 61 | 213 | 0.0 | 0.0 | 0.00 | 0.10 | 0.00 | 70 | 963.5 |
| 20260506042922 | 60 | 213 | 0.0 | 0.0 | 0.00 | 0.10 | 0.00 | 72 | 963.5 |
| 20260506042416 | 60 | 213 | 0.0 | 0.0 | 0.00 | 0.10 | 0.00 | 75 | 963.6 |
| 20260506041910 | 59 | 216 | 0.0 | 0.0 | 0.00 | 0.10 | 0.00 | 77 | 963.5 |
| 20260506041404 | 58 | 216 | 0.0 | 0.0 | 0.00 | 0.10 | 0.00 | 76 | 963.5 |
| 20260506040858 | 58 | 216 | 0.0 | 0.0 | 0.00 | 0.10 | 0.00 | 79 | 963.5 |
| 20260506040351 | 58 | 216 | 0.0 | 0.0 | 0.00 | 0.10 | 0.00 | 80 | 963.4 |
| 20260506040107 | 58 | 216 | 0.0 | 0.0 | 0.00 | 0.10 | 0.10 | 80 | 963.4 |
| 20260506035340 | 58 | 216 | 0.0 | 0.0 | 0.00 | 0.10 | 0.10 | 80 | 963.4 |
| 20260506035104 | 58 | 216 | 0.0 | 0.0 | 0.00 | 0.10 | 0.10 | 82 | 963.5 |
| 20260506034327 | 58 | 216 | 0.0 | 0.0 | 0.00 | 0.10 | 0.10 | 81 | 963.4 |
| 20260506033822 | 58 | 216 | 0.0 | 0.0 | 0.00 | 0.10 | 0.10 | 81 | 963.3 |
| 20260506033315 | 58 | 216 | 0.0 | 0.0 | 0.00 | 0.10 | 0.10 | 82 | 963.3 |
| 20260506032810 | 58 | 216 | 0.0 | 0.0 | 0.00 | 0.10 | 0.10 | 81 | 963.2 |
| 20260506032305 | 58 | 216 | 0.0 | 0.0 | 0.00 | 0.10 | 0.10 | 82 | 963.2 |
| 20260506032027 | 58 | 216 | 0.0 | 0.0 | 0.00 | 0.10 | 0.10 | 82 | 963.2 |
| 20260506031252 | 58 | 216 | 0.0 | 0.0 | 0.00 | 0.10 | 0.10 | 81 | 963.3 |
| 20260506030746 | 58 | 216 | 0.0 | 0.0 | 0.00 | 0.10 | 0.10 | 82 | 963.4 |
| 20260506030240 | 58 | 216 | 0.0 | 0.0 | 0.00 | 0.10 | 0.10 | 82 | 963.4 |
| 20260506025734 | 58 | 216 | 0.0 | 0.0 | 0.00 | 0.10 | 0.10 | 82 | 963.5 |
| 20260506025455 | 58 | 216 | 0.0 | 0.0 | 0.00 | 0.10 | 0.10 | 82 | 963.5 |
| 20260506024954 | 59 | 216 | 0.0 | 0.0 | 0.00 | 0.10 | 0.10 | 82 | 963.4 |
| 20260506024216 | 59 | 216 | 0.0 | 0.0 | 0.00 | 0.10 | 0.10 | 82 | 963.5 |
| 20260506023711 | 59 | 216 | 0.0 | 0.0 | 0.00 | 0.10 | 0.10 | 81 | 963.5 |
| 20260506023211 | 59 | 216 | 0.0 | 0.0 | 0.00 | 0.10 | 0.10 | 83 | 963.7 |
| 20260506022711 | 59 | 216 | 0.0 | 0.0 | 0.00 | 0.10 | 0.10 | 83 | 963.6 |
| 20260506022213 | 59 | 216 | 0.0 | 0.0 | 0.00 | 0.10 | 0.10 | 84 | 963.7 |
| 20260506022156 | 59 | 216 | 0.0 | 0.0 | 0.00 | 0.10 | 0.10 | 83 | 963.6 |
| 20260506021209 | 59 | 216 | 0.0 | 0.0 | 0.00 | 0.10 | 0.10 | 84 | 963.6 |
| 20260506020707 | 59 | 216 | 0.0 | 0.0 | 0.00 | 0.10 | 0.10 | 84 | 963.5 |
| 20260506020208 | 59 | 216 | 0.0 | 0.0 | 0.00 | 0.10 | 0.10 | 85 | 963.6 |
| 20260506015708 | 60 | 216 | 0.0 | 0.0 | 0.00 | 0.10 | 0.10 | 85 | 963.5 |
| 20260506015205 | 60 | 216 | 0.0 | 0.0 | 0.00 | 0.10 | 0.10 | 84 | 963.5 |
| 20260506014921 | 60 | 216 | 0.0 | 0.0 | 0.00 | 0.10 | 0.10 | 83 | 963.5 |
| 20260506014800 | 60 | 216 | 0.0 | 0.0 | 0.00 | 0.10 | 0.10 | 84 | 963.5 |
| 20260506013700 | 61 | 216 | 0.0 | 0.0 | 0.00 | 0.10 | 0.10 | 83 | 963.4 |
| 20260506013159 | 61 | 216 | 0.0 | 0.0 | 0.00 | 0.10 | 0.10 | 83 | 963.4 |
| 20260506012659 | 61 | 216 | 0.0 | 0.0 | 0.00 | 0.10 | 0.10 | 83 | 963.3 |
| 20260506012158 | 61 | 216 | 0.0 | 0.0 | 0.00 | 0.10 | 0.10 | 82 | 963.3 |
| 20260506011656 | 61 | 216 | 0.0 | 0.0 | 0.00 | 0.10 | 0.10 | 81 | 963.3 |
| 20260506011155 | 61 | 216 | 0.0 | 0.0 | 0.00 | 0.10 | 0.10 | 81 | 963.2 |
| 20260506010652 | 61 | 216 | 0.0 | 0.0 | 0.00 | 0.10 | 0.10 | 81 | 963.2 |
| 20260506010151 | 61 | 216 | 0.0 | 0.0 | 0.00 | 0.10 | 0.10 | 80 | 963.2 |
| 20260506005650 | 62 | 216 | 0.0 | 0.0 | 0.00 | 0.10 | 0.10 | 81 | 963.0 |
| 20260506005144 | 62 | 216 | 0.0 | 0.0 | 0.00 | 0.10 | 0.10 | 81 | 963.1 |
| 20260506004638 | 62 | 216 | 0.0 | 0.0 | 0.00 | 0.10 | 0.10 | 82 | 963.1 |
| 20260506004132 | 62 | 196 | 0.0 | 0.0 | 0.00 | 0.10 | 0.10 | 83 | 963.3 |
| 20260506003626 | 62 | 196 | 0.0 | 0.0 | 0.00 | 0.10 | 0.10 | 82 | 963.3 |
| 20260506003345 | 63 | 196 | 0.0 | 0.0 | 0.00 | 0.10 | 0.10 | 82 | 963.2 |
| 20260506002614 | 63 | 196 | 0.0 | 0.0 | 0.00 | 0.10 | 0.10 | 82 | 963.1 |
| 20260506002107 | 64 | 196 | 0.0 | 0.0 | 0.00 | 0.10 | 0.10 | 80 | 963.0 |
| 20260506001602 | 64 | 196 | 0.0 | 0.0 | 0.00 | 0.10 | 0.10 | 78 | 963.0 |
| 20260506001056 | 65 | 196 | 0.0 | 0.0 | 0.00 | 0.10 | 0.10 | 79 | 963.0 |
| 20260506000550 | 65 | 196 | 0.0 | 0.0 | 0.00 | 0.10 | 0.10 | 77 | 963.0 |
| 20260506000043 | 65 | 196 | 0.0 | 0.0 | 0.00 | 0.10 | 0.10 | 76 | 962.9 |
| 20260505235538 | 65 | 196 | 0.0 | 0.0 | 0.00 | 0.10 | 0.10 | 76 | 962.8 |
| 20260505235033 | 66 | 196 | 0.0 | 0.0 | 0.00 | 0.10 | 0.10 | 75 | 962.9 |
| 20260505234526 | 66 | 196 | 0.0 | 0.0 | 0.00 | 0.10 | 0.10 | 76 | 962.9 |
| 20260505234020 | 66 | 196 | 0.0 | 0.0 | 0.00 | 0.10 | 0.10 | 76 | 962.8 |
| 20260505233514 | 67 | 196 | 0.0 | 0.0 | 0.00 | 0.10 | 0.10 | 77 | 962.8 |
| 20260505233009 | 67 | 196 | 0.0 | 0.0 | 0.00 | 0.10 | 0.10 | 76 | 962.7 |
| 20260505232956 | 67 | 196 | 0.0 | 0.0 | 0.00 | 0.10 | 0.10 | 75 | 962.7 |
| 20260505232011 | 68 | 196 | 0.0 | 0.0 | 0.00 | 0.10 | 0.10 | 75 | 962.7 |
| 20260505231507 | 68 | 196 | 0.0 | 0.0 | 0.00 | 0.10 | 0.10 | 75 | 962.8 |
| 20260505231005 | 69 | 196 | 0.0 | 0.0 | 0.00 | 0.10 | 0.10 | 74 | 962.7 |
| 20260505230506 | 69 | 196 | 0.0 | 0.0 | 0.00 | 0.10 | 0.10 | 71 | 962.6 |
| 20260505230006 | 69 | 196 | 0.0 | 1.0 | 0.00 | 0.10 | 0.10 | 69 | 962.7 |
| 20260505225508 | 69 | 196 | 0.0 | 2.0 | 0.00 | 0.10 | 0.10 | 68 | 962.6 |
| 20260505225226 | 69 | 246 | 0.0 | 2.0 | 0.00 | 0.10 | 0.10 | 68 | 962.7 |
| 20260505224504 | 69 | 262 | 0.0 | 2.0 | 0.00 | 0.10 | 0.10 | 69 | 962.7 |
| 20260505224006 | 69 | 344 | 0.0 | 4.0 | 0.00 | 0.10 | 0.10 | 70 | 962.7 |
| 20260505223506 | 69 | 288 | 0.0 | 4.0 | 0.00 | 0.10 | 0.10 | 69 | 962.7 |
| 20260505223006 | 69 | 285 | 0.0 | 0.0 | 0.00 | 0.10 | 0.10 | 72 | 962.9 |
| 20260505222724 | 69 | 282 | 0.0 | 0.0 | 0.00 | 0.10 | 0.10 | 74 | 962.9 |
| 20260505222005 | 69 | 19 | 0.0 | 0.0 | 0.00 | 0.10 | 0.10 | 74 | 962.8 |
| 20260505221723 | 69 | 268 | 0.0 | 0.0 | 0.00 | 0.10 | 0.10 | 76 | 962.9 |
| 20260505221002 | 69 | 252 | 0.0 | 0.0 | 0.00 | 0.10 | 0.10 | 79 | 962.9 |
| 20260505220504 | 69 | 252 | 0.0 | 0.0 | 0.00 | 0.10 | 0.10 | 78 | 962.9 |
| 20260505215958 | 69 | 252 | 0.0 | 0.0 | 0.00 | 0.10 | 0.10 | 80 | 962.8 |
| 20260505215453 | 69 | 252 | 0.0 | 0.0 | 0.00 | 0.10 | 0.10 | 83 | 962.8 |
| 20260505214950 | 68 | 252 | 0.0 | 0.0 | 0.00 | 0.10 | 0.10 | 84 | 962.8 |
| 20260505214453 | 67 | 252 | 0.0 | 0.0 | 0.00 | 0.10 | 0.10 | 83 | 962.8 |
| 20260505213953 | 67 | 252 | 0.0 | 0.0 | 0.03 | 0.10 | 0.10 | 85 | 962.9 |
| 20260505213450 | 66 | 252 | 0.0 | 0.0 | 0.04 | 0.10 | 0.10 | 85 | 962.9 |
| 20260505213214 | 66 | 252 | 0.0 | 0.0 | 0.04 | 0.10 | 0.10 | 86 | 963.1 |
| 20260505212712 | 66 | 252 | 0.0 | 0.0 | 0.04 | 0.10 | 0.10 | 87 | 963.1 |
| 20260505211948 | 66 | 252 | 0.0 | 0.0 | 0.04 | 0.10 | 0.10 | 86 | 963.0 |
| 20260505211447 | 67 | 292 | 0.0 | 0.0 | 0.04 | 0.10 | 0.10 | 84 | 962.9 |
| 20260505210947 | 67 | 292 | 0.0 | 0.0 | 0.04 | 0.10 | 0.10 | 82 | 962.8 |
| 20260505210446 | 67 | 292 | 0.0 | 1.0 | 0.04 | 0.10 | 0.10 | 81 | 962.7 |
| 20260505205948 | 67 | 292 | 0.0 | 2.0 | 0.04 | 0.10 | 0.10 | 77 | 962.8 |
| 20260505205446 | 67 | 308 | 0.0 | 2.0 | 0.04 | 0.10 | 0.10 | 78 | 962.7 |
| 20260505204945 | 67 | 83 | 1.0 | 5.0 | 0.04 | 0.10 | 0.10 | 78 | 962.6 |
| 20260505204655 | 69 | 211 | 2.0 | 8.0 | 0.04 | 0.10 | 0.10 | 71 | 962.9 |
| 20260505204134 | 74 | 286 | 1.0 | 13.0 | 0.00 | 0.06 | 0.06 | 54 | 962.6 |
| 20260505204022 | 71 | 304 | 3.0 | 13.0 | 0.01 | 0.07 | 0.08 | 63 | 962.9 |
| 20260505203155 | 74 | 286 | 0.0 | 3.0 | 0.00 | 0.06 | 0.06 | 49 | 962.3 |
| 20260505202436 | 75 | 281 | 0.0 | 3.0 | 0.00 | 0.06 | 0.06 | 50 | 962.1 |
| 20260505201936 | 75 | 281 | 1.0 | 4.0 | 0.00 | 0.06 | 0.06 | 49 | 962.1 |
| 20260505201436 | 75 | 306 | 1.0 | 4.0 | 0.00 | 0.06 | 0.06 | 49 | 962.1 |
| 20260505200936 | 75 | 287 | 1.0 | 3.0 | 0.00 | 0.06 | 0.06 | 50 | 962.2 |
| 20260505200435 | 74 | 293 | 0.0 | 3.0 | 0.00 | 0.06 | 0.06 | 50 | 962.2 |
| 20260505195934 | 74 | 301 | 0.0 | 4.0 | 0.00 | 0.06 | 0.06 | 50 | 962.3 |
| 20260505195434 | 74 | 287 | 1.0 | 6.0 | 0.00 | 0.06 | 0.06 | 51 | 962.3 |
| 20260505194935 | 74 | 289 | 1.0 | 6.0 | 0.00 | 0.06 | 0.06 | 52 | 962.4 |
| 20260505194436 | 74 | 302 | 1.0 | 9.0 | 0.00 | 0.06 | 0.06 | 53 | 962.5 |
| 20260505193934 | 73 | 285 | 1.0 | 9.0 | 0.00 | 0.06 | 0.06 | 53 | 962.5 |
| 20260505193434 | 74 | 311 | 0.0 | 5.0 | 0.00 | 0.06 | 0.06 | 52 | 962.6 |
| 20260505192935 | 74 | 313 | 1.0 | 5.0 | 0.00 | 0.06 | 0.06 | 51 | 962.7 |
| 20260505192435 | 75 | 234 | 1.0 | 6.0 | 0.00 | 0.06 | 0.06 | 46 | 962.7 |
| 20260505191932 | 75 | 15 | 1.0 | 6.0 | 0.00 | 0.06 | 0.06 | 45 | 962.6 |
| 20260505191918 | 75 | 227 | 1.0 | 6.0 | 0.00 | 0.06 | 0.06 | 45 | 962.6 |
| 20260505190930 | 76 | 292 | 2.0 | 6.0 | 0.00 | 0.06 | 0.06 | 44 | 962.5 |
| 20260505190431 | 76 | 221 | 2.0 | 6.0 | 0.00 | 0.06 | 0.06 | 45 | 962.5 |
| 20260505185930 | 76 | 214 | 2.0 | 9.0 | 0.00 | 0.06 | 0.06 | 41 | 962.5 |
| 20260505185916 | 77 | 210 | 2.0 | 9.0 | 0.00 | 0.06 | 0.06 | 43 | 962.3 |
| 20260505184931 | 77 | 219 | 2.0 | 10.0 | 0.00 | 0.06 | 0.06 | 42 | 962.4 |
| 20260505184431 | 77 | 315 | 2.0 | 10.0 | 0.00 | 0.06 | 0.06 | 44 | 962.3 |
| 20260505183932 | 77 | 265 | 2.0 | 12.0 | 0.00 | 0.06 | 0.06 | 45 | 962.3 |
| 20260505183432 | 77 | 211 | 3.0 | 12.0 | 0.00 | 0.06 | 0.06 | 43 | 962.2 |
| 20260505182932 | 77 | 254 | 2.0 | 11.0 | 0.00 | 0.06 | 0.06 | 40 | 962.3 |
| 20260505182432 | 77 | 200 | 2.0 | 7.0 | 0.00 | 0.06 | 0.06 | 43 | 962.3 |
| 20260505181931 | 78 | 206 | 2.0 | 9.0 | 0.00 | 0.06 | 0.06 | 41 | 962.5 |
| 20260505181431 | 78 | 53 | 2.0 | 9.0 | 0.00 | 0.06 | 0.06 | 42 | 962.5 |
| 20260505180929 | 79 | 189 | 2.0 | 8.0 | 0.00 | 0.06 | 0.06 | 42 | 962.5 |
| 20260505180429 | 78 | 213 | 2.0 | 8.0 | 0.00 | 0.06 | 0.06 | 45 | 962.6 |
| 20260505180156 | 78 | 246 | 2.0 | 10.0 | 0.00 | 0.06 | 0.06 | 41 | 962.7 |
| 20260505175426 | 78 | 194 | 2.0 | 10.0 | 0.00 | 0.06 | 0.06 | 42 | 962.7 |
| 20260505174925 | 77 | 169 | 2.0 | 8.0 | 0.00 | 0.06 | 0.06 | 42 | 962.9 |
| 20260505174422 | 78 | 209 | 2.0 | 8.0 | 0.00 | 0.06 | 0.06 | 41 | 962.9 |
| 20260505173923 | 79 | 215 | 3.0 | 9.0 | 0.00 | 0.06 | 0.06 | 41 | 962.9 |
| 20260505173420 | 79 | 215 | 2.0 | 9.0 | 0.00 | 0.06 | 0.06 | 42 | 963.1 |
| 20260505172918 | 79 | 208 | 2.0 | 7.0 | 0.00 | 0.06 | 0.06 | 43 | 963.0 |
| 20260505172413 | 78 | 239 | 2.0 | 7.0 | 0.00 | 0.06 | 0.06 | 43 | 963.1 |
| 20260505172140 | 78 | 207 | 2.0 | 7.0 | 0.00 | 0.06 | 0.06 | 43 | 963.0 |
| 20260505171410 | 77 | 350 | 2.0 | 7.0 | 0.00 | 0.06 | 0.06 | 46 | 963.0 |
| 20260505170910 | 77 | 123 | 2.0 | 8.0 | 0.00 | 0.06 | 0.06 | 47 | 963.1 |
| 20260505170410 | 77 | 209 | 2.0 | 8.0 | 0.00 | 0.06 | 0.06 | 49 | 963.1 |
| 20260505165911 | 77 | 290 | 2.0 | 7.0 | 0.00 | 0.06 | 0.06 | 46 | 963.2 |
| 20260505165410 | 77 | 237 | 2.0 | 7.0 | 0.00 | 0.06 | 0.06 | 47 | 963.1 |